Time,TemperatureF,DewpointF,PressureIn,WindDirection,WindDirectionDegrees,WindSpeedMPH,WindSpeedGustMPH,Humidity,HourlyPrecipIn,Conditions,Clouds,dailyrainin,SolarRadiationWatts/m^2,SoftwareType,DateUTC
2013-02-24 00:01:00,20.0,13.0,-100.00,ESE,105,6.0,9.0,72,-99.99,,,-99.99,0.000000,,2013-02-24 07:01:00,
2013-02-24 00:11:00,21.0,12.0,-100.00,NE,53,6.0,8.0,67,-99.99,,,-99.99,-0.100000,,2013-02-24 07:11:00,
2013-02-24 00:21:00,21.0,12.0,-100.00,NE,48,5.0,6.0,68,-99.99,,,-99.99,0.000000,,2013-02-24 07:21:00,
2013-02-24 00:31:00,21.0,12.0,-100.00,NE,44,4.0,6.0,68,-99.99,,,-99.99,-0.100000,,2013-02-24 07:31:00,
2013-02-24 00:41:00,21.0,11.0,-100.00,North,1,4.0,5.0,65,-99.99,,,-99.99,-0.100000,,2013-02-24 07:41:00,
2013-02-24 00:51:00,20.0,12.0,-100.00,NNE,28,3.0,4.0,69,-99.99,,,-99.99,-0.100000,,2013-02-24 07:51:00,
2013-02-24 01:01:00,19.0,11.0,-100.00,NW,320,1.0,2.0,69,-99.99,,,-99.99,0.000000,,2013-02-24 08:01:00,
2013-02-24 01:11:00,19.0,11.0,-100.00,South,180,2.0,2.0,72,-99.99,,,-99.99,-0.100000,,2013-02-24 08:11:00,
2013-02-24 01:21:00,19.0,11.0,-100.00,SSW,206,4.0,6.0,69,-99.99,,,-99.99,-0.100000,,2013-02-24 08:21:00,
2013-02-24 01:31:00,18.0,11.0,-100.00,SW,229,4.0,6.0,72,-99.99,,,-99.99,-0.100000,,2013-02-24 08:31:00,
2013-02-24 01:41:00,17.0,11.0,-100.00,South,180,4.0,6.0,78,-99.99,,,-99.99,-0.100000,,2013-02-24 08:41:00,
2013-02-24 01:53:00,15.0,11.0,-100.00,South,186,9.0,10.0,83,-99.99,,,-99.99,-0.100000,,2013-02-24 08:53:00,
2013-02-24 02:01:00,15.0,11.0,-100.00,SSW,207,6.0,7.0,85,-99.99,,,-99.99,-0.100000,,2013-02-24 09:01:00,
2013-02-24 02:11:00,16.0,12.0,-100.00,South,191,9.0,10.0,83,-99.99,,,-99.99,-0.100000,,2013-02-24 09:11:00,
2013-02-24 02:21:00,16.0,11.0,-100.00,SSW,193,9.0,11.0,80,-99.99,,,-99.99,-0.100000,,2013-02-24 09:21:00,
2013-02-24 02:31:00,17.0,12.0,-100.00,SSW,203,7.0,8.0,82,-99.99,,,-99.99,-0.100000,,2013-02-24 09:31:00,
2013-02-24 02:41:00,17.0,13.0,-100.00,South,190,9.0,11.0,83,-99.99,,,-99.99,-0.100000,,2013-02-24 09:41:00,
2013-02-24 02:51:00,16.0,12.0,-100.00,SSW,197,9.0,10.0,84,-99.99,,,-99.99,-0.100000,,2013-02-24 09:51:00,
2013-02-24 03:01:00,17.0,13.0,-100.00,SSW,204,7.0,10.0,84,-99.99,,,-99.99,-0.100000,,2013-02-24 10:01:00,
2013-02-24 03:11:00,17.0,13.0,-100.00,SSW,206,8.0,9.0,85,-99.99,,,-99.99,-0.100000,,2013-02-24 10:11:00,
2013-02-24 03:21:00,17.0,13.0,-100.00,SW,215,7.0,9.0,84,-99.99,,,-99.99,0.000000,,2013-02-24 10:21:00,
2013-02-24 03:31:00,15.0,11.0,-100.00,WSW,241,6.0,8.0,82,-99.99,,,-99.99,-0.100000,,2013-02-24 10:31:00,
2013-02-24 03:41:00,9.0,6.0,-100.00,WSW,251,4.0,5.0,86,-99.99,,,-99.99,-0.100000,,2013-02-24 10:41:00,
2013-02-24 03:51:00,11.0,8.0,-100.00,West,271,3.0,4.0,89,-99.99,,,-99.99,-0.100000,,2013-02-24 10:51:00,
2013-02-24 04:01:00,10.0,8.0,-100.00,WSW,240,6.0,7.0,88,-99.99,,,-99.99,-0.100000,,2013-02-24 11:01:00,
2013-02-24 04:11:00,12.0,10.0,-100.00,SW,229,7.0,8.0,89,-99.99,,,-99.99,-0.200000,,2013-02-24 11:11:00,
2013-02-24 04:21:00,14.0,11.0,-100.00,SW,225,8.0,11.0,88,-99.99,,,-99.99,-0.100000,,2013-02-24 11:21:00,
2013-02-24 04:31:00,12.0,9.0,-100.00,SW,230,6.0,7.0,87,-99.99,,,-99.99,-0.100000,,2013-02-24 11:31:00,
2013-02-24 04:41:00,10.0,8.0,-100.00,WSW,238,6.0,8.0,88,-99.99,,,-99.99,-0.100000,,2013-02-24 11:41:00,
2013-02-24 04:52:00,12.0,9.0,-100.00,SW,229,7.0,10.0,88,-99.99,,,-99.99,-0.100000,,2013-02-24 11:52:00,
2013-02-24 05:01:00,10.0,7.0,-100.00,WSW,240,8.0,11.0,86,-99.99,,,-99.99,-0.100000,,2013-02-24 12:01:00,
2013-02-24 05:11:00,12.0,9.0,-100.00,WSW,242,6.0,9.0,85,-99.99,,,-99.99,-0.100000,,2013-02-24 12:11:00,
2013-02-24 05:21:00,12.0,8.0,-100.00,WSW,239,5.0,6.0,84,-99.99,,,-99.99,-0.100000,,2013-02-24 12:21:00,
2013-02-24 05:32:00,12.0,8.0,-100.00,SW,216,6.0,8.0,85,-99.99,,,-99.99,-0.100000,,2013-02-24 12:32:00,
2013-02-24 05:43:00,12.0,9.0,-100.00,SSW,205,7.0,8.0,86,-99.99,,,-99.99,-0.100000,,2013-02-24 12:43:00,
2013-02-24 06:04:00,12.0,9.0,-100.00,SW,220,8.0,9.0,86,-99.99,,,-99.99,-0.100000,,2013-02-24 13:04:00,
2013-02-24 06:11:00,12.0,8.0,-100.00,WSW,243,6.0,8.0,85,-99.99,,,-99.99,0.000000,,2013-02-24 13:11:00,
2013-02-24 06:32:00,11.0,7.0,-100.00,SW,229,5.0,6.0,87,-99.99,,,-99.99,0.000000,,2013-02-24 13:32:00,
2013-02-24 06:42:00,10.0,7.0,-100.00,WSW,239,4.0,6.0,86,-99.99,,,-99.99,-0.100000,,2013-02-24 13:42:00,
2013-02-24 06:51:00,10.0,7.0,-100.00,WSW,248,7.0,9.0,86,-99.99,,,-99.99,-0.100000,,2013-02-24 13:51:00,
2013-02-24 07:02:00,8.0,4.0,-100.00,WSW,251,6.0,7.0,84,-99.99,,,-99.99,-0.100000,,2013-02-24 14:02:00,
2013-02-24 07:11:00,7.0,4.0,-100.00,WSW,252,5.0,6.0,85,-99.99,,,-99.99,0.000000,,2013-02-24 14:11:00,
2013-02-24 07:21:00,8.0,4.0,-100.00,SW,234,5.0,7.0,84,-99.99,,,-99.99,0.500000,,2013-02-24 14:21:00,
2013-02-24 07:32:00,7.0,4.0,-100.00,WSW,241,5.0,6.0,85,-99.99,,,-99.99,2.600000,,2013-02-24 14:32:00,
2013-02-24 07:42:00,5.0,2.0,-100.00,SW,231,4.0,5.0,85,-99.99,,,-99.99,9.900000,,2013-02-24 14:42:00,
2013-02-24 08:01:00,6.0,3.0,-100.00,SW,220,6.0,8.0,86,-99.99,,,-99.99,54.500000,,2013-02-24 15:01:00,
2013-02-24 08:11:00,9.0,4.0,-100.00,SSW,208,7.0,8.0,78,-99.99,,,-99.99,88.500000,,2013-02-24 15:11:00,
2013-02-24 08:21:00,11.0,4.0,-100.00,SSW,208,10.0,11.0,72,-99.99,,,-99.99,124.000000,,2013-02-24 15:21:00,
2013-02-24 08:31:00,11.0,4.0,-100.00,SSW,201,9.0,11.0,70,-99.99,,,-99.99,151.500000,,2013-02-24 15:31:00,
2013-02-24 08:41:00,11.0,4.0,-100.00,SSW,206,9.0,10.0,72,-99.99,,,-99.99,174.699997,,2013-02-24 15:41:00,
2013-02-24 08:52:00,12.0,4.0,-100.00,SW,215,9.0,11.0,69,-99.99,,,-99.99,191.100006,,2013-02-24 15:52:00,
2013-02-24 09:01:00,14.0,5.0,-100.00,SW,218,9.0,11.0,68,-99.99,,,-99.99,212.699997,,2013-02-24 16:01:00,
2013-02-24 09:11:00,14.0,5.0,-100.00,SSW,210,6.0,8.0,67,-99.99,,,-99.99,236.100006,,2013-02-24 16:11:00,
2013-02-24 09:21:00,14.0,5.0,-100.00,SW,232,8.0,10.0,66,-99.99,,,-99.99,261.500000,,2013-02-24 16:21:00,
2013-02-24 09:31:00,15.0,6.0,-100.00,SW,236,7.0,8.0,64,-99.99,,,-99.99,285.799988,,2013-02-24 16:31:00,
2013-02-24 09:41:00,17.0,6.0,-100.00,SW,231,4.0,6.0,62,-99.99,,,-99.99,309.700012,,2013-02-24 16:41:00,
2013-02-24 09:51:00,18.0,8.0,-100.00,SW,228,4.0,7.0,63,-99.99,,,-99.99,333.600006,,2013-02-24 16:51:00,
2013-02-24 10:01:00,18.0,8.0,-100.00,SW,229,5.0,7.0,64,-99.99,,,-99.99,356.299988,,2013-02-24 17:01:00,
2013-02-24 10:11:00,19.0,10.0,-100.00,SSW,207,6.0,7.0,66,-99.99,,,-99.99,378.899994,,2013-02-24 17:11:00,
2013-02-24 10:21:00,19.0,11.0,-100.00,SW,216,6.0,7.0,69,-99.99,,,-99.99,400.600006,,2013-02-24 17:21:00,
2013-02-24 10:31:00,19.0,12.0,-100.00,SW,214,7.0,8.0,75,-99.99,,,-99.99,421.100006,,2013-02-24 17:31:00,
2013-02-24 10:41:00,20.0,13.0,-100.00,SW,214,9.0,10.0,72,-99.99,,,-99.99,440.899994,,2013-02-24 17:41:00,
2013-02-24 10:52:00,20.0,12.0,-100.00,WSW,238,7.0,9.0,69,-99.99,,,-99.99,460.200012,,2013-02-24 17:52:00,
2013-02-24 11:01:00,22.0,13.0,-100.00,SSW,212,6.0,9.0,68,-99.99,,,-99.99,478.100006,,2013-02-24 18:01:00,
2013-02-24 11:11:00,21.0,13.0,-100.00,SW,219,7.0,9.0,70,-99.99,,,-99.99,495.100006,,2013-02-24 18:11:00,
2013-02-24 11:21:00,22.0,14.0,-100.00,SSW,213,6.0,7.0,69,-99.99,,,-99.99,511.000000,,2013-02-24 18:21:00,
2013-02-24 11:31:00,23.0,15.0,-100.00,SW,214,8.0,10.0,70,-99.99,,,-99.99,526.400024,,2013-02-24 18:31:00,
2013-02-24 11:41:00,23.0,15.0,-100.00,SW,233,7.0,9.0,70,-99.99,,,-99.99,538.200012,,2013-02-24 18:41:00,
2013-02-24 11:51:00,24.0,14.0,-100.00,WSW,246,7.0,10.0,66,-99.99,,,-99.99,551.099976,,2013-02-24 18:51:00,
2013-02-24 12:01:00,24.0,15.0,-100.00,WSW,240,8.0,10.0,68,-99.99,,,-99.99,562.900024,,2013-02-24 19:01:00,
2013-02-24 12:11:00,24.0,15.0,-100.00,WSW,251,8.0,10.0,68,-99.99,,,-99.99,572.400024,,2013-02-24 19:11:00,
2013-02-24 12:21:00,24.0,16.0,-100.00,WSW,243,10.0,14.0,72,-99.99,,,-99.99,580.200012,,2013-02-24 19:21:00,
2013-02-24 12:31:00,24.0,17.0,-100.00,WSW,245,11.0,14.0,72,-99.99,,,-99.99,585.799988,,2013-02-24 19:31:00,
2013-02-24 12:41:00,25.0,17.0,-100.00,WSW,241,10.0,15.0,71,-99.99,,,-99.99,590.900024,,2013-02-24 19:41:00,
2013-02-24 12:51:00,25.0,17.0,-100.00,WSW,244,11.0,14.0,71,-99.99,,,-99.99,592.900024,,2013-02-24 19:51:00,
2013-02-24 13:01:00,25.0,18.0,-100.00,WSW,252,12.0,16.0,73,-99.99,,,-99.99,595.000000,,2013-02-24 20:01:00,
2013-02-24 13:11:00,26.0,18.0,-100.00,WSW,245,11.0,15.0,71,-99.99,,,-99.99,596.099976,,2013-02-24 20:11:00,
2013-02-24 13:21:00,26.0,18.0,-100.00,WSW,252,13.0,17.0,72,-99.99,,,-99.99,596.200012,,2013-02-24 20:21:00,
2013-02-24 13:31:00,26.0,18.0,-100.00,WSW,254,12.0,16.0,73,-99.99,,,-99.99,593.099976,,2013-02-24 20:31:00,
2013-02-24 13:41:00,26.0,19.0,-100.00,WSW,247,14.0,17.0,73,-99.99,,,-99.99,588.299988,,2013-02-24 20:41:00,
2013-02-24 13:52:00,26.0,19.0,-100.00,WSW,250,11.0,14.0,73,-99.99,,,-99.99,581.700012,,2013-02-24 20:52:00,
2013-02-24 14:01:00,27.0,19.0,-100.00,WSW,253,11.0,15.0,72,-99.99,,,-99.99,575.500000,,2013-02-24 21:01:00,
2013-02-24 14:11:00,27.0,18.0,-100.00,WSW,246,12.0,16.0,69,-99.99,,,-99.99,565.200012,,2013-02-24 21:11:00,
2013-02-24 14:21:00,27.0,19.0,-100.00,WSW,252,11.0,14.0,73,-99.99,,,-99.99,556.099976,,2013-02-24 21:21:00,
2013-02-24 14:31:00,27.0,19.0,-100.00,WSW,257,11.0,16.0,72,-99.99,,,-99.99,544.099976,,2013-02-24 21:31:00,
2013-02-24 14:41:00,27.0,19.0,-100.00,WSW,244,9.0,13.0,70,-99.99,,,-99.99,530.900024,,2013-02-24 21:41:00,
2013-02-24 14:52:00,27.0,20.0,-100.00,WSW,246,10.0,15.0,71,-99.99,,,-99.99,516.500000,,2013-02-24 21:52:00,
2013-02-24 15:01:00,27.0,20.0,-100.00,West,260,13.0,18.0,72,-99.99,,,-99.99,496.100006,,2013-02-24 22:01:00,
2013-02-24 15:11:00,27.0,20.0,-100.00,West,259,13.0,17.0,72,-99.99,,,-99.99,479.399994,,2013-02-24 22:11:00,
2013-02-24 15:21:00,28.0,20.0,-100.00,WSW,251,12.0,17.0,70,-99.99,,,-99.99,462.899994,,2013-02-24 22:21:00,
2013-02-24 15:31:00,28.0,20.0,-100.00,West,266,13.0,17.0,73,-99.99,,,-99.99,442.799988,,2013-02-24 22:31:00,
2013-02-24 15:41:00,27.0,20.0,-100.00,WSW,257,13.0,17.0,73,-99.99,,,-99.99,422.000000,,2013-02-24 22:41:00,
2013-02-24 15:51:00,27.0,21.0,-100.00,West,266,13.0,15.0,74,-99.99,,,-99.99,400.500000,,2013-02-24 22:51:00,
2013-02-24 16:01:00,28.0,21.0,-100.00,WSW,257,10.0,15.0,74,-99.99,,,-99.99,336.700012,,2013-02-24 23:01:00,
2013-02-24 16:11:00,28.0,21.0,-100.00,WSW,254,11.0,14.0,73,-99.99,,,-99.99,28.600000,,2013-02-24 23:11:00,
2013-02-24 16:21:00,28.0,21.0,-100.00,WSW,254,12.0,17.0,73,-99.99,,,-99.99,349.299988,,2013-02-24 23:21:00,
2013-02-24 16:31:00,28.0,21.0,-100.00,WSW,252,11.0,14.0,72,-99.99,,,-99.99,323.700012,,2013-02-24 23:31:00,
2013-02-24 16:41:00,28.0,21.0,-100.00,WSW,250,9.0,11.0,72,-99.99,,,-99.99,296.399994,,2013-02-24 23:41:00,
2013-02-24 16:52:00,29.0,21.0,-100.00,WSW,249,9.0,13.0,71,-99.99,,,-99.99,269.500000,,2013-02-24 23:52:00,
2013-02-24 17:01:00,29.0,21.0,-100.00,WSW,254,9.0,12.0,70,-99.99,,,-99.99,242.000000,,2013-02-25 00:01:00,
2013-02-24 17:11:00,29.0,20.0,-100.00,WSW,252,9.0,15.0,68,-99.99,,,-99.99,213.500000,,2013-02-25 00:11:00,
2013-02-24 17:21:00,29.0,20.0,-100.00,WSW,244,8.0,10.0,68,-99.99,,,-99.99,186.500000,,2013-02-25 00:21:00,
2013-02-24 17:31:00,29.0,20.0,-100.00,WSW,244,6.0,9.0,68,-99.99,,,-99.99,159.199997,,2013-02-25 00:31:00,
2013-02-24 17:41:00,29.0,20.0,-100.00,WSW,238,5.0,8.0,70,-99.99,,,-99.99,131.600006,,2013-02-25 00:41:00,
2013-02-24 17:51:00,29.0,20.0,-100.00,WSW,243,6.0,8.0,69,-99.99,,,-99.99,93.699997,,2013-02-25 00:51:00,
2013-02-24 18:01:00,29.0,20.0,-100.00,SW,234,5.0,9.0,69,-99.99,,,-99.99,56.900002,,2013-02-25 01:01:00,
2013-02-24 18:11:00,28.0,20.0,-100.00,WSW,242,6.0,7.0,71,-99.99,,,-99.99,21.600000,,2013-02-25 01:11:00,
2013-02-24 18:21:00,28.0,20.0,-100.00,SW,235,6.0,9.0,70,-99.99,,,-99.99,9.800000,,2013-02-25 01:21:00,
2013-02-24 18:31:00,27.0,19.0,-100.00,SW,229,5.0,7.0,69,-99.99,,,-99.99,4.500000,,2013-02-25 01:31:00,
2013-02-24 18:41:00,26.0,19.0,-100.00,SSW,209,6.0,7.0,72,-99.99,,,-99.99,1.200000,,2013-02-25 01:41:00,
2013-02-24 18:51:00,25.0,19.0,-100.00,SSW,211,6.0,8.0,76,-99.99,,,-99.99,0.100000,,2013-02-25 01:51:00,
2013-02-24 19:01:00,26.0,18.0,-100.00,SW,216,8.0,9.0,72,-99.99,,,-99.99,-0.100000,,2013-02-25 02:01:00,
2013-02-24 19:11:00,26.0,18.0,-100.00,SW,216,7.0,9.0,72,-99.99,,,-99.99,-0.100000,,2013-02-25 02:11:00,
2013-02-24 19:21:00,26.0,19.0,-100.00,SW,217,9.0,12.0,72,-99.99,,,-99.99,-0.100000,,2013-02-25 02:21:00,
2013-02-24 19:31:00,26.0,18.0,-100.00,SW,220,8.0,11.0,73,-99.99,,,-99.99,0.000000,,2013-02-25 02:31:00,
2013-02-24 19:41:00,25.0,18.0,-100.00,SSW,211,9.0,10.0,74,-99.99,,,-99.99,-0.100000,,2013-02-25 02:41:00,
2013-02-24 19:51:00,25.0,18.0,-100.00,SSW,211,9.0,10.0,75,-99.99,,,-99.99,-0.100000,,2013-02-25 02:51:00,
2013-02-24 20:01:00,25.0,19.0,-100.00,SSW,209,10.0,12.0,76,-99.99,,,-99.99,0.000000,,2013-02-25 03:01:00,
2013-02-24 20:11:00,24.0,18.0,-100.00,SSW,207,7.0,10.0,77,-99.99,,,-99.99,-0.100000,,2013-02-25 03:11:00,
2013-02-24 20:21:00,21.0,17.0,-100.00,SSW,205,9.0,10.0,82,-99.99,,,-99.99,-0.100000,,2013-02-25 03:21:00,
2013-02-24 20:31:00,24.0,19.0,-100.00,SSW,211,10.0,13.0,80,-99.99,,,-99.99,-0.100000,,2013-02-25 03:31:00,
2013-02-24 20:41:00,24.0,18.0,-100.00,SW,216,11.0,16.0,78,-99.99,,,-99.99,-0.100000,,2013-02-25 03:41:00,
2013-02-24 20:51:00,25.0,19.0,-100.00,SW,216,11.0,14.0,77,-99.99,,,-99.99,0.000000,,2013-02-25 03:51:00,
2013-02-24 21:01:00,25.0,19.0,-100.00,SW,216,10.0,13.0,77,-99.99,,,-99.99,-0.100000,,2013-02-25 04:01:00,
2013-02-24 21:11:00,25.0,19.0,-100.00,SW,216,10.0,13.0,77,-99.99,,,-99.99,-0.100000,,2013-02-25 04:11:00,
2013-02-24 21:21:00,24.0,18.0,-100.00,SSW,212,10.0,13.0,78,-99.99,,,-99.99,-0.100000,,2013-02-25 04:21:00,
2013-02-24 21:31:00,24.0,18.0,-100.00,SSW,213,11.0,14.0,79,-99.99,,,-99.99,-0.100000,,2013-02-25 04:31:00,
2013-02-24 21:41:00,24.0,19.0,-100.00,SSW,212,11.0,14.0,79,-99.99,,,-99.99,-0.100000,,2013-02-25 04:41:00,
2013-02-24 21:51:00,24.0,19.0,-100.00,SSW,210,12.0,15.0,79,-99.99,,,-99.99,-0.100000,,2013-02-25 04:51:00,
2013-02-24 22:01:00,25.0,19.0,-100.00,SSW,210,12.0,15.0,78,-99.99,,,-99.99,-0.100000,,2013-02-25 05:01:00,
2013-02-24 22:11:00,25.0,19.0,-100.00,SW,214,12.0,16.0,76,-99.99,,,-99.99,-0.100000,,2013-02-25 05:11:00,
2013-02-24 22:21:00,25.0,18.0,-100.00,SSW,211,11.0,14.0,75,-99.99,,,-99.99,0.000000,,2013-02-25 05:21:00,
2013-02-24 22:31:00,25.0,18.0,-100.00,SSW,206,11.0,16.0,76,-99.99,,,-99.99,-0.100000,,2013-02-25 05:31:00,
2013-02-24 22:41:00,24.0,18.0,-100.00,SSW,203,10.0,14.0,76,-99.99,,,-99.99,-0.100000,,2013-02-25 05:41:00,
2013-02-24 22:52:00,24.0,18.0,-100.00,SSW,207,10.0,12.0,76,-99.99,,,-99.99,-0.100000,,2013-02-25 05:52:00,
2013-02-24 23:02:00,24.0,18.0,-100.00,SSW,212,12.0,15.0,74,-99.99,,,-99.99,-0.100000,,2013-02-25 06:02:00,
2013-02-24 23:11:00,24.0,17.0,-100.00,SSW,213,12.0,15.0,74,-99.99,,,-99.99,-0.100000,,2013-02-25 06:11:00,
2013-02-24 23:21:00,24.0,17.0,-100.00,SSW,212,12.0,15.0,74,-99.99,,,-99.99,-0.100000,,2013-02-25 06:21:00,
2013-02-24 23:31:00,24.0,17.0,-100.00,SW,214,11.0,15.0,74,-99.99,,,-99.99,-0.100000,,2013-02-25 06:31:00,
2013-02-24 23:41:00,24.0,17.0,-100.00,SW,215,11.0,14.0,74,-99.99,,,-99.99,-0.100000,,2013-02-25 06:41:00,
2013-02-24 23:51:00,24.0,17.0,-100.00,SSW,213,12.0,14.0,74,-99.99,,,-99.99,-0.100000,,2013-02-25 06:51:00,